Other Public Products
Issued by NWS Grand Forks, ND

Home | Current Version | Previous Version | Text Only | Print | Product List | Glossary Off
Versions: 1 2 3 4 5 6 7 8 9 10 11 12 13 14 15 16 17 18 19 20 21 22 23 24 25 26 27 28 29 30 31 32 33 34 35 36 37 38 39 40 41 42 43 44 45 46 47 48 49 50

000
FPUS83 KFGF 190931
OPUFGF
PRAIRIE TO PINES WEATHER ROUNDUP
NATIONAL WEATHER SERVICE EASTERN NORTH DAKOTA/GRAND FORKS ND
400 AM CDT FRI SEP 19 2014

 **SATELLITE DATA USED TO AUGMENT SKY COVER AT AUTOMATED STATIONS**
 *****  WEATHER ACROSS EASTERN NORTH DAKOTA  *****

CITY           SKY/WX    TMP DP  RH WIND       PRES   REMARKS
GRAND FORKS    CLOUDY    65  57  75 S18G26    29.60F
GRAND FORKS AF CLOUDY    66  59  77 SW23G29   29.58F
GRAND CITY NWS   N/A     63 N/A N/A S14         N/A
BUXTON           N/A     63  60  91 S10         N/A
DEVILS LAKE    CLOUDY    66  55  68 S16G23    29.54F
FARGO          CLOUDY    64  55  72 S16G24    29.69F
WAHPETON ARPT  CLOUDY    63  52  67 S16G22    29.74S
$$

 *****  WEATHER ACROSS CENTRAL AND WESTERN NORTH DAKOTA  *****

CITY           SKY/WX    TMP DP  RH WIND       PRES   REMARKS
JAMESTOWN      CLOUDY    64  58  80 S15       29.66R
BISMARCK       CLOUDY    65  62  90 S5        29.62F
MINOT          CLOUDY    66  57  72 SW9       29.52F
MINOT AFB      CLOUDY    68  55  64 NW3       29.52F
GARRISON         N/A     63  59  87 SW6       29.56F
WILLISTON      CLOUDY    61  53  75 SW6       29.56F
DICKINSON      CLOUDY    66  53  63 W16       29.61F
HETTINGER      LGT RAIN  66  55  67 W17G25    29.68S
$$

 *****  OTHER OBSERVATIONS NORTHEAST NORTH DAKOTA  *****

CITY           SKY/WX    TMP DP  RH WIND       PRES   REMARKS
WALHALLA         N/A     68  63  83 SW10G20   29.51S
LANGDON        FAIR      64  59  82 SW15G22   29.54F
CAVALIER       FAIR      68  59  73 S14G22    29.52F
GRAFTON        FAIR      66  57  72 S17G23    29.55F
CANDO          FAIR      64  59  82 SW13      29.53F
FORT TOTTEN      N/A     65  59  80 S13       29.95S
ROLLA          FAIR      64  64 100 SW13      29.52F
RUGBY          FAIR      64  63  94 S10       29.53F
 ***** THE ABOVE OBSERVATIONS ARE NON NWS ARE NOT QUALITY
        CONTROLLED AND MAY MIS-REPORT RAIN FOR SNOW...
$$

 *****  OTHER OBSERVATIONS SOUTHEAST NORTH DAKOTA *****

CITY           SKY/WX    TMP DP  RH WIND       PRES   REMARKS
COOPERSTOWN    NOT AVBL
VALLEY CITY    PTSUNNY   64  63  94 S16       29.68R
OAKES            N/A     64  63  94 S17G28    29.73R
GWINNER        SUNNY     66  59  77 S15       29.72R
SHEYENNE NWR     N/A     63  56  79 S12       29.95S
BUFFALO          N/A     63  56  78 S13         N/A
WYNDMERE         N/A     63  57  82 S9          N/A
 ***** THE ABOVE OBSERVATIONS ARE NON NWS ARE NOT QUALITY
       CONTROLLED AND MAY MIS-REPORT RAIN FOR SNOW...
$$

  *****  WEATHER ACROSS NORTHERN MINNESOTA  *****

CITY           SKY/WX    TMP DP  RH WIND       PRES   REMARKS
FLAG ISLAND    CLOUDY    59  55  88 S13       29.60S
WARROAD        CLOUDY    64  57  77 S13G21    29.63F
ROSEAU         CLOUDY    64  55  72 S12       29.62F
HALLOCK        CLOUDY    66  57  72 S17       29.56F
THF RVR FALLS  CLOUDY    64  55  72 S25G32    29.63F
HALSTAD          N/A     63  54  70 S21         N/A
FOSSTON        CLOUDY    63  54  72 S20G28    29.71R
BAUDETTE       CLOUDY    61  53  75 S15G24    29.65F
WASKISH        CLOUDY    63  54  72 S10G21    29.68F
CROOKSTON      CLOUDY    64  55  72 S21G29    29.64F
$$
  *****  WEATHER ACROSS CENTRAL AND WEST MINNESOTA  *****

CITY           SKY/WX    TMP DP  RH WIND       PRES   REMARKS
BEMIDJI        LGT RAIN  59  53  80 S17G23    29.73F
PARK RAPIDS    CLOUDY    60  52  74 S15       29.80F
WADENA         CLOUDY    61  52  72 S9G17     29.80F
DETROIT LAKES  CLOUDY    63  54  72 S16       29.77F
MOORHEAD       CLOUDY    64  59  82 S15G21    29.70F
FERGUS FALLS   MOCLDY    63  52  67 S17G24    29.77S
ELBOW LAKE     FAIR      60  53  78 S20G25    29.78F
MORRIS MN      CLOUDY    61  54  77 S17       29.80S
STAPLES        CLOUDY    57  50  77 S8        29.84F
WHEATON        CLOUDY    59  54  82 SE15G22   29.77F
$$
  *****  WEATHER ELSEWHERE ACROSS MINNESOTA  *****

CITY           SKY/WX    TMP DP  RH WIND       PRES   REMARKS
DULUTH         CLOUDY    53  50  89 S9        29.92F FOG
INTRNTL FALLS  CLOUDY    56  51  84 VRB7      29.72F
ELY            CLOUDY    54  50  87 S10G22    29.86F
CLOQUET        CLOUDY    50  48  93 SE5       29.91F
BRAINERD       CLOUDY    58  51  78 S13       29.87F
HIBBING        CLOUDY    56  52  86 S9G18     29.87F
ALEXANDRIA     CLOUDY    60  52  74 S14G24    29.85F
SAINT CLOUD    PTCLDY    61  52  72 S10       29.90F
MINNEAPOLIS    PTCLDY    58  52  80 SE9       29.95F
$$

  *****  WEATHER ACROSS SOUTH DAKOTA  *****

CITY           SKY/WX    TMP DP  RH WIND       PRES   REMARKS
SIOUX FALLS    CLOUDY    62  57  83 S24G31    29.85F
BROOKINGS      NOT AVBL
WATERTOWN      CLOUDY    62  55  77 S16G24    29.80S
HURON          CLOUDY    63  57  81 S14       29.76S
SISSETON         N/A     63  57  81 S10       29.74S
ABERDEEN       LGT RAIN  63  60  90 S10       29.76R
MITCHELL       CLOUDY    63  58  83 S16G24    29.79F
PIERRE         CLOUDY    64  61  90 SE12      29.69S
MOBRIDGE       CLOUDY    66  62  87 E14G24    29.56F
RAPID CITY     PTCLDY    70  51  51 NW17      29.78R
$$

  *****  SOME WEATHER IN NEARBY STATES *****

CITY           SKY/WX    TMP DP  RH WIND       PRES   REMARKS
GLASGOW MT     MOCLDY    59  50  72 W8        29.63S
GREAT FALLS MT CLOUDY    60  42  51 SW14      29.78S
CHEYENNE WY    CLEAR     55  41  59 SW9       29.99S
SCOTTSBLUFF NE CLEAR     71  45  39 S13       29.83F
OMAHA NE       CLOUDY    63  59  87 S13G24    29.96F
DES MOINES IA  PTCLDY    57  54  89 S7        30.03S
DAVENPORT IA   CLEAR     52  49  89 SE7       30.11S FOG
CHICAGO IL     CLEAR     55  52  89 SE7       30.14S
EAU CLAIRE WI  MOCLDY    54  51  90 S9        30.02F
LA CROSSE WI   PTCLDY    58  52  80 S10       30.05F
$$

  *****  SOME NATIONAL WEATHER *****

CITY           SKY/WX    TMP DP  RH WIND       PRES   REMARKS
LA GUARDIA NY  PTCLDY    59  50  72 NE12      30.20R
RALEIGH NC     MOCLDY    64  60  87 E5        30.11R
ATLANTA GA     CLOUDY    70  66  87 CALM      30.02R
NEW ORLEANS LA CLOUDY    75  68  78 SE3       29.91R
OKLAHOMA CITY  PTCLDY    66  64  93 SE3       29.95F FOG
ALBUQUERQUE NM MOCLDY    67  58  72 N6        30.06F
SALT LAKE CITY MOCLDY    66  54  65 E5        29.94R
LOS ANGELES CA PTCLDY    68  62  81 W9        29.88R
BOISE ID       CLEAR     62  45  53 CALM      29.95R
SEATTLE WA     CLOUDY    63  57  82 S8        30.01R
$$

*** WEATHER ACROSS MANITOBA...SASKATCHEWAN AND ONTARIO ***
                ***ONTARIO***

CITY           SKY/WX    TMP DP  RH WIND       PRES   REMARKS
GERALDTON      CLOUDY    45  41  87 S12       29.93F
THUNDER BAY    CLOUDY    46  45  93 NE5       29.95F
SIOUX LOOKOUT  CLOUDY    54  50  87 S15G24    29.67F
TORONTO        PTCLDY    41  36  81 NE7       30.29R
BIG TROUT LK   HVY RAIN  46  45  93 S17G26    29.49F FOG
PICKLE LAKE    NOT AVBL
DRYDEN         MOCLDY    55  52  88 S17G26    29.66F
KENORA         CLOUDY    59  54  82 S17G26    29.59F
$$
                *** MANITOBA***

CITY           SKY/WX    TMP DP  RH WIND       PRES   REMARKS
BRANDON        CLOUDY    61  57  88 W5        29.48F
DAUPHIN        MOCLDY    63  57  82 W7        29.43S
ISLAND LAKE    CLOUDY    52  50  93 CALM      29.44F
PILOT MOUND    NOT AVBL
THE PAS        NOT AVBL
THOMPSON       DRIZZLE   50  50 100 N8        29.44R
WINNIPEG       CLOUDY    68  61  77 S17G23    29.49S
LYNN LAKE      CLOUDY    48  45  87 NW9       29.50R
CHURCHILL      CLOUDY    45  43  93 NW10      29.36S
GILLAM         CLOUDY    50  50 100 N10       29.39
$$
                ***SASKATCHEWAN***

CITY           SKY/WX    TMP DP  RH WIND       PRES   REMARKS
ESTEVAN        MOCLDY    57  54  88 CALM      29.53F
KINDERSLEY     MOCLDY    54  50  87 N5        29.59R
LLOYDMINSTER   CLOUDY    54  48  82 W8        29.60R
PRINCE ALBERT  CLOUDY    52  50  93 W3        29.54S
REGINA         PTCLDY    54  52  94 N2        29.50F



USA.gov is the U.S. government's official web portal to all federal, state and local government web resources and services.